FENGYUN 1C DEB, 29866

Orbit data source: Space-Track

FENGYUN 1C DEB, 29866 is space debris in SSO originally from a launch on Mon, 10 May 1999 UTC launched from the Taiyaun Space Center, China (TSC). Fengyun 1C debris stems from the Chinese weather satellite Fengyun-1C, which was intentionally destroyed by a Chinese anti-satellite missile in 2007. This event dramatically increased the amount of space debris, with thousands of trackable fragments posing hazards to satellites and human spaceflight. The Fengyun 1C debris cloud has become a focal point in discussions about space sustainability and the need for international regulations to prevent the creation of new debris.

Loading next visibility...
Identifier
29866, 1999-025FL
Orbit
SSO
Country
Flag of CNCN / PRC
Related business
Manufacturer
Unknown
Mission
Spacecraft
Bus & Motor
Unknown
Mass
Unknown
Launch date (UTC)
1999-05-10 (27 years ago)
Launch vehicle
Unknown
Launch site
Taiyaun Space Center, China (TSC)
Object type
Payload
Rocket body
Debris
Shape & HBR
Unknown shape, 0.1 m
Radar Cross Section
Medium (>0.1 m² and <1 m²)

Expand to show TLE details & history
Last TLE update: 17 hours ago

TLE from 17 hours ago
0 FENGYUN 1C DEB
1 29866U 99025FL  26256.43777051  .00001594  00000-0  23181-3 0  9998
2 29866  98.0623 241.5135 0193323  67.8285  84.8189 14.65378013 43484
Epoch: 2026-09-13T10:30Z
TLE epoch observation values (Epoch: 2026-09-13T10:30:23.372Z)
Latitude
24.90593°
Longitude
-84.76566°
Altitude
669.251 km
Speed
7.53 km/s
True Right ascension
04h 21m 03s
True Declination
24° 46' 23"
Sunlit
Object was in daylight at epoch
Visualization orbit readout
Latitude
Unknown
Longitude
Unknown
Altitude
Unknown
Speed
Unknown
Apparent Right ascension
Unknown
Apparent Declination
Unknown
Sunlit
N/A
Visualization observer readout
Local Sidereal Time
19:48:27
Azimuth
Unknown
Elevation
Unknown
Doppler factor
Unknown
Orbital elements
Apogee altitude
809.241 km
Perigee altitude
536.615 km
Semi-major axis
7,051.065 km
Eccentricity
0.01933
Inclination
98.0623°
RAAN
241.5135°
Arg. of periapsis
67.8285°
True anomaly
87.02944°
Mean anomaly
84.8189°
Eccentric anomaly
85.92376°
Mean motion
3.66574 °/min
Orbital period
98.21 mins
BSTAR
0.00023181
Loading maneuver chart data...
Computing Atmospheric mass density...
Loading historical data...
Loading historical data...
Loading historical data...
Loading historical data...
Loading historical data...
Loading historical data...
Loading historical data...

Documentation

Showing up to 5 results
|